LRC641 MGGT-MROC

Flight info

Callsign LRC641
Flight time 1h 16m
Altitude 39000
Route KAPAN2A KAPAN UG436 LIB BARRA3L
Aircraft A20N/M-SDE2E3FGHIRWXY/LB1

Departure

Time 2026-04-29 04:03
Airport La Aurora International Airport (MGGT)

Arrival

Time 2026-04-29 05:20
Airport Juan Santamaría International Airport (MROC)
Time Latitude Longitude Altitude Speed Heading
2026-04-29 03:45 14.59009 -90.52845 4908 ft 0 kts 287°
2026-04-29 03:54 14.59008 -90.52840 4908 ft 2 kts 287°
2026-04-29 03:54 14.59003 -90.52825 4908 ft 2 kts 287°
2026-04-29 03:54 14.58998 -90.52810 4908 ft 2 kts 287°
2026-04-29 03:54 14.58995 -90.52797 4908 ft 0 kts 287°
2026-04-29 03:55 14.58991 -90.52786 4908 ft 2 kts 271°
2026-04-29 03:55 14.58993 -90.52771 4908 ft 2 kts 252°
2026-04-29 03:55 14.59000 -90.52756 4908 ft 2 kts 231°
2026-04-29 03:55 14.59011 -90.52747 4908 ft 2 kts 211°
2026-04-29 03:56 14.59019 -90.52742 4908 ft 1 kts 199°
2026-04-29 03:56 14.59025 -90.52741 4908 ft 0 kts 197°
2026-04-29 03:57 14.59007 -90.52747 4908 ft 7 kts 198°
2026-04-29 03:58 14.58928 -90.52773 4908 ft 14 kts 197°
2026-04-29 03:58 14.58893 -90.52783 4908 ft 4 kts 197°
2026-04-29 03:58 14.58829 -90.52803 4908 ft 14 kts 197°
2026-04-29 03:58 14.58732 -90.52817 4908 ft 15 kts 149°
2026-04-29 03:59 14.58683 -90.52729 4896 ft 10 kts 126°
2026-04-29 03:59 14.58598 -90.52730 4892 ft 14 kts 198°
2026-04-29 03:59 14.58490 -90.52766 4887 ft 18 kts 197°
2026-04-29 03:59 14.58355 -90.52808 4880 ft 22 kts 198°
2026-04-29 04:00 14.58197 -90.52860 4873 ft 24 kts 197°
2026-04-29 04:00 14.58029 -90.52914 4869 ft 25 kts 196°
2026-04-29 04:00 14.57864 -90.52966 4871 ft 23 kts 197°
2026-04-29 04:00 14.57718 -90.53014 4875 ft 20 kts 198°
2026-04-29 04:01 14.57585 -90.53058 4877 ft 18 kts 196°
2026-04-29 04:01 14.57467 -90.53095 4880 ft 18 kts 198°
2026-04-29 04:01 14.57333 -90.53138 4880 ft 22 kts 197°
2026-04-29 04:01 14.57197 -90.53183 4881 ft 18 kts 196°
2026-04-29 04:02 14.57107 -90.53210 4881 ft 8 kts 187°
2026-04-29 04:02 14.57062 -90.53183 4881 ft 7 kts 103°
2026-04-29 04:02 14.57100 -90.53142 4879 ft 9 kts 17°
2026-04-29 04:02 14.57176 -90.53117 4879 ft 19 kts 17°
2026-04-29 04:03 14.57535 -90.53001 4879 ft 87 kts 17°
2026-04-29 04:03 14.58304 -90.52754 4879 ft 143 kts 17°
2026-04-29 04:03 14.59383 -90.52410 5101 ft 168 kts 18°
2026-04-29 04:03 14.60495 -90.52078 5700 ft 168 kts 14°
2026-04-29 04:04 14.61626 -90.51826 6299 ft 169 kts 14°
2026-04-29 04:04 14.62796 -90.51559 6803 ft 174 kts 13°
2026-04-29 04:04 14.64019 -90.51293 7087 ft 188 kts 15°
2026-04-29 04:04 14.65221 -90.50664 7353 ft 203 kts 49°
2026-04-29 04:05 14.65771 -90.49287 7633 ft 222 kts 84°
2026-04-29 04:05 14.65427 -90.47646 7858 ft 250 kts 117°
2026-04-29 04:05 14.64323 -90.46151 8253 ft 269 kts 127°
2026-04-29 04:05 14.63083 -90.44621 8676 ft 285 kts 127°
2026-04-29 04:06 14.61799 -90.43025 9326 ft 292 kts 127°
2026-04-29 04:06 14.60507 -90.41419 10078 ft 295 kts 127°
2026-04-29 04:06 14.59172 -90.39761 10697 ft 304 kts 126°
2026-04-29 04:06 14.57797 -90.38045 11166 ft 318 kts 126°
2026-04-29 04:07 14.56356 -90.36253 11856 ft 323 kts 126°
2026-04-29 04:07 14.54914 -90.34458 12599 ft 325 kts 126°
2026-04-29 04:07 14.53454 -90.32643 13307 ft 329 kts 125°
2026-04-29 04:07 14.51965 -90.30786 13996 ft 332 kts 125°
2026-04-29 04:08 14.50475 -90.28928 14654 ft 336 kts 125°
2026-04-29 04:08 14.48983 -90.27067 15283 ft 340 kts 124°
2026-04-29 04:08 14.47472 -90.25183 15906 ft 343 kts 125°
2026-04-29 04:08 14.45906 -90.23232 16515 ft 347 kts 124°
2026-04-29 04:09 14.44350 -90.21294 17101 ft 351 kts 124°
2026-04-29 04:09 14.42753 -90.19306 17690 ft 355 kts 124°
2026-04-29 04:09 14.41173 -90.17339 18288 ft 358 kts 124°
2026-04-29 04:09 14.39570 -90.15342 18881 ft 362 kts 125°
2026-04-29 04:10 14.37964 -90.13343 19483 ft 364 kts 125°
2026-04-29 04:10 14.36349 -90.11335 20069 ft 367 kts 125°
2026-04-29 04:10 14.34696 -90.09284 20660 ft 370 kts 125°
2026-04-29 04:10 14.33051 -90.07239 21217 ft 374 kts 125°
2026-04-29 04:11 14.31373 -90.05151 21799 ft 377 kts 125°
2026-04-29 04:11 14.29675 -90.03045 22373 ft 380 kts 125°
2026-04-29 04:11 14.27976 -90.00937 22904 ft 384 kts 125°
2026-04-29 04:11 14.26232 -89.98770 23455 ft 387 kts 125°
2026-04-29 04:12 14.24478 -89.96595 23980 ft 390 kts 125°
2026-04-29 04:12 14.22737 -89.94436 24496 ft 394 kts 125°
2026-04-29 04:12 14.20985 -89.92263 24998 ft 397 kts 125°
2026-04-29 04:12 14.19216 -89.90070 25469 ft 400 kts 125°
2026-04-29 04:13 14.17449 -89.87880 25945 ft 403 kts 125°
2026-04-29 04:13 14.15654 -89.85654 26428 ft 406 kts 124°
2026-04-29 04:13 14.13832 -89.83396 26883 ft 409 kts 125°
2026-04-29 04:13 14.12014 -89.81149 27342 ft 411 kts 124°
2026-04-29 04:14 14.10188 -89.78886 27791 ft 414 kts 124°
2026-04-29 04:14 14.08344 -89.76602 28211 ft 417 kts 125°
2026-04-29 04:14 14.06484 -89.74300 28644 ft 420 kts 124°
2026-04-29 04:14 14.04608 -89.71978 29072 ft 422 kts 125°
2026-04-29 04:15 14.02726 -89.69649 29484 ft 425 kts 124°
2026-04-29 04:15 14.00817 -89.67287 29895 ft 427 kts 124°
2026-04-29 04:15 13.98932 -89.64954 30287 ft 429 kts 125°
2026-04-29 04:15 13.96996 -89.62558 30672 ft 432 kts 125°
2026-04-29 04:16 13.95092 -89.60205 31038 ft 435 kts 125°
2026-04-29 04:16 13.93130 -89.57780 31401 ft 437 kts 125°
2026-04-29 04:16 13.91196 -89.55390 31738 ft 440 kts 126°
2026-04-29 04:16 13.89225 -89.52960 32079 ft 442 kts 126°
2026-04-29 04:17 13.87250 -89.50522 32401 ft 445 kts 126°
2026-04-29 04:17 13.85266 -89.48078 32783 ft 445 kts 126°
2026-04-29 04:17 13.83303 -89.45654 33246 ft 444 kts 126°
2026-04-29 04:17 13.81309 -89.43195 33707 ft 443 kts 127°
2026-04-29 04:18 13.79364 -89.40791 34128 ft 442 kts 127°
2026-04-29 04:18 13.77396 -89.38365 34559 ft 441 kts 127°
2026-04-29 04:18 13.75437 -89.35949 34960 ft 441 kts 128°
2026-04-29 04:18 13.73454 -89.33506 35350 ft 440 kts 128°
2026-04-29 04:19 13.71514 -89.31113 35694 ft 440 kts 129°
2026-04-29 04:19 13.69536 -89.28680 36018 ft 440 kts 129°
2026-04-29 04:19 13.67590 -89.26283 36305 ft 441 kts 129°
2026-04-29 04:19 13.65625 -89.23865 36620 ft 441 kts 130°
2026-04-29 04:20 13.63657 -89.21446 36912 ft 441 kts 130°
2026-04-29 04:20 13.61673 -89.19009 37235 ft 440 kts 130°
2026-04-29 04:20 13.59730 -89.16620 37535 ft 439 kts 130°
2026-04-29 04:20 13.58421 -89.15011 37724 ft 439 kts 130°
2026-04-29 04:21 13.55809 -89.11803 38086 ft 438 kts 131°
2026-04-29 04:21 13.53837 -89.09380 38319 ft 438 kts 131°
2026-04-29 04:21 13.51880 -89.06979 38493 ft 439 kts 131°
2026-04-29 04:21 13.49943 -89.04604 38667 ft 440 kts 131°
2026-04-29 04:22 13.47961 -89.02172 38843 ft 441 kts 131°
2026-04-29 04:22 13.46008 -88.99778 38902 ft 442 kts 131°
2026-04-29 04:22 13.42044 -88.94916 38904 ft 442 kts 131°
2026-04-29 04:23 13.38101 -88.90084 38904 ft 442 kts 131°
2026-04-29 04:23 13.34149 -88.85244 38901 ft 442 kts 131°
2026-04-29 04:24 13.30231 -88.80447 38899 ft 441 kts 131°
2026-04-29 04:24 13.26287 -88.75620 38894 ft 442 kts 131°
2026-04-29 04:25 13.22320 -88.70769 38893 ft 442 kts 131°
2026-04-29 04:25 13.18360 -88.65928 38893 ft 442 kts 131°
2026-04-29 04:26 13.14420 -88.61114 38900 ft 442 kts 131°
2026-04-29 04:26 13.10449 -88.56265 38901 ft 442 kts 131°
2026-04-29 04:27 13.06508 -88.51454 38893 ft 442 kts 131°
2026-04-29 04:27 13.02532 -88.46606 38888 ft 442 kts 131°
2026-04-29 04:28 12.98597 -88.41809 38889 ft 441 kts 131°
2026-04-29 04:28 12.94627 -88.36970 38888 ft 442 kts 131°
2026-04-29 04:29 12.90673 -88.32159 38890 ft 443 kts 131°
2026-04-29 04:29 12.86684 -88.27303 38894 ft 443 kts 131°
2026-04-29 04:30 12.82713 -88.22469 38892 ft 443 kts 132°
2026-04-29 04:31 12.76743 -88.15213 38890 ft 444 kts 131°
2026-04-29 04:31 12.72775 -88.10392 38891 ft 444 kts 132°
2026-04-29 04:32 12.68792 -88.05555 38889 ft 443 kts 132°
2026-04-29 04:32 12.64839 -88.00758 38882 ft 443 kts 132°
2026-04-29 04:33 12.60847 -87.95917 38880 ft 444 kts 132°
2026-04-29 04:33 12.56848 -87.91067 38876 ft 445 kts 132°
2026-04-29 04:34 12.52864 -87.86240 38874 ft 445 kts 132°
2026-04-29 04:34 12.48892 -87.81358 38873 ft 445 kts 131°
2026-04-29 04:35 12.45067 -87.76436 38876 ft 444 kts 130°
2026-04-29 04:35 12.41258 -87.71464 38876 ft 444 kts 130°
2026-04-29 04:36 12.37454 -87.66491 38872 ft 445 kts 130°
2026-04-29 04:36 12.33619 -87.61475 38871 ft 445 kts 130°
2026-04-29 04:37 12.29805 -87.56493 38868 ft 445 kts 130°
2026-04-29 04:37 12.25992 -87.51514 38872 ft 444 kts 130°
2026-04-29 04:38 12.22173 -87.46527 38873 ft 445 kts 130°
2026-04-29 04:38 12.18387 -87.41592 38881 ft 444 kts 131°
2026-04-29 04:39 12.14584 -87.36630 38876 ft 443 kts 131°
2026-04-29 04:39 12.10761 -87.31649 38878 ft 443 kts 131°
2026-04-29 04:40 12.06965 -87.26704 38879 ft 443 kts 131°
2026-04-29 04:40 12.03147 -87.21733 38878 ft 443 kts 131°
2026-04-29 04:41 11.99359 -87.16808 38878 ft 443 kts 131°
2026-04-29 04:41 11.95535 -87.11834 38877 ft 444 kts 131°
2026-04-29 04:42 11.91726 -87.06884 38877 ft 444 kts 131°
2026-04-29 04:42 11.87908 -87.01925 38876 ft 444 kts 131°
2026-04-29 04:43 11.84106 -86.96986 38875 ft 442 kts 131°
2026-04-29 04:43 11.80296 -86.92042 38875 ft 441 kts 131°
2026-04-29 04:44 11.76519 -86.87142 38878 ft 442 kts 131°
2026-04-29 04:44 11.72717 -86.82214 38881 ft 442 kts 131°
2026-04-29 04:45 11.68902 -86.77270 38880 ft 443 kts 131°
2026-04-29 04:45 11.65078 -86.72316 38882 ft 444 kts 131°
2026-04-29 04:46 11.61241 -86.67348 38882 ft 443 kts 132°
2026-04-29 04:46 11.57438 -86.62427 38882 ft 443 kts 132°
2026-04-29 04:47 11.53627 -86.57501 38875 ft 442 kts 132°
2026-04-29 04:47 11.50586 -86.53569 38875 ft 441 kts 131°
2026-04-29 04:48 11.46798 -86.48673 38871 ft 441 kts 132°
2026-04-29 04:48 11.42982 -86.43746 38868 ft 442 kts 131°
2026-04-29 04:49 11.39179 -86.38836 38871 ft 442 kts 131°
2026-04-29 04:49 11.35365 -86.33915 38873 ft 443 kts 132°
2026-04-29 04:50 11.31561 -86.29006 38873 ft 442 kts 132°
2026-04-29 04:50 11.27734 -86.24072 38872 ft 442 kts 132°
2026-04-29 04:51 11.23928 -86.19168 38873 ft 441 kts 132°
2026-04-29 04:51 11.20129 -86.14278 38876 ft 440 kts 132°
2026-04-29 04:52 11.16324 -86.09379 38878 ft 440 kts 132°
2026-04-29 04:52 11.12505 -86.04466 38874 ft 439 kts 132°
2026-04-29 04:53 11.08704 -85.99577 38877 ft 440 kts 132°
2026-04-29 04:53 11.04915 -85.94707 38877 ft 440 kts 132°
2026-04-29 04:53 11.02996 -85.92240 38513 ft 442 kts 132°
2026-04-29 04:54 11.01081 -85.89784 37550 ft 449 kts 132°
2026-04-29 04:54 10.99119 -85.87266 36570 ft 454 kts 132°
2026-04-29 04:54 10.97167 -85.84760 35821 ft 452 kts 132°
2026-04-29 04:54 10.95239 -85.82282 35222 ft 448 kts 133°
2026-04-29 04:55 10.93292 -85.79778 34621 ft 444 kts 133°
2026-04-29 04:55 10.91380 -85.77322 34015 ft 441 kts 133°
2026-04-29 04:55 10.89487 -85.74893 33351 ft 439 kts 133°
2026-04-29 04:55 10.87582 -85.72450 32724 ft 437 kts 133°
2026-04-29 04:56 10.85688 -85.70022 32272 ft 433 kts 133°
2026-04-29 04:56 10.83797 -85.67599 31843 ft 433 kts 133°
2026-04-29 04:56 10.81888 -85.65153 31377 ft 432 kts 133°
2026-04-29 04:56 10.80042 -85.62786 30952 ft 429 kts 133°
2026-04-29 04:57 10.78178 -85.60398 30473 ft 426 kts 133°
2026-04-29 04:57 10.76357 -85.58064 30008 ft 422 kts 133°
2026-04-29 04:57 10.74539 -85.55733 29559 ft 419 kts 133°
2026-04-29 04:57 10.72738 -85.53426 29122 ft 415 kts 133°
2026-04-29 04:58 10.70948 -85.51135 28646 ft 412 kts 133°
2026-04-29 04:58 10.69148 -85.48833 28212 ft 409 kts 133°
2026-04-29 04:58 10.67381 -85.46574 27729 ft 408 kts 133°
2026-04-29 04:58 10.65625 -85.44331 27271 ft 405 kts 132°
2026-04-29 04:59 10.63867 -85.42082 26814 ft 403 kts 132°
2026-04-29 04:59 10.62147 -85.39883 26380 ft 400 kts 132°
2026-04-29 04:59 10.60412 -85.37666 25927 ft 398 kts 131°
2026-04-29 04:59 10.58685 -85.35458 25481 ft 395 kts 131°
2026-04-29 05:00 10.57384 -85.33794 25144 ft 393 kts 131°
2026-04-29 05:00 10.55680 -85.31617 24707 ft 390 kts 131°
2026-04-29 05:00 10.53999 -85.29469 24283 ft 388 kts 131°
2026-04-29 05:00 10.52305 -85.27305 23854 ft 385 kts 131°
2026-04-29 05:01 10.50660 -85.25203 23436 ft 382 kts 131°
2026-04-29 05:01 10.49002 -85.23085 23001 ft 380 kts 130°
2026-04-29 05:01 10.47366 -85.20996 22555 ft 378 kts 130°
2026-04-29 05:01 10.45733 -85.18913 22134 ft 376 kts 130°
2026-04-29 05:02 10.44097 -85.16824 21716 ft 373 kts 130°
2026-04-29 05:02 10.42497 -85.14784 21293 ft 371 kts 129°
2026-04-29 05:02 10.40881 -85.12725 20846 ft 370 kts 129°
2026-04-29 05:02 10.39280 -85.10684 20402 ft 368 kts 129°
2026-04-29 05:03 10.37700 -85.08669 19965 ft 366 kts 129°
2026-04-29 05:03 10.36113 -85.06646 19525 ft 364 kts 128°
2026-04-29 05:03 10.34539 -85.04639 19053 ft 364 kts 128°
2026-04-29 05:03 10.32954 -85.02621 18594 ft 362 kts 128°
2026-04-29 05:04 10.31392 -85.00631 18152 ft 360 kts 127°
2026-04-29 05:04 10.29843 -84.98654 17727 ft 358 kts 127°
2026-04-29 05:04 10.28303 -84.96694 17315 ft 355 kts 127°
2026-04-29 05:04 10.26750 -84.94711 16902 ft 353 kts 127°
2026-04-29 05:05 10.25234 -84.92776 16495 ft 350 kts 127°
2026-04-29 05:05 10.23710 -84.90833 16074 ft 348 kts 127°
2026-04-29 05:05 10.22206 -84.88915 15641 ft 347 kts 127°
2026-04-29 05:05 10.20702 -84.87000 15204 ft 346 kts 127°
2026-04-29 05:06 10.19208 -84.85098 14764 ft 344 kts 127°
2026-04-29 05:06 10.17710 -84.83194 14332 ft 343 kts 127°
2026-04-29 05:06 10.16220 -84.81297 13896 ft 341 kts 127°
2026-04-29 05:06 10.14725 -84.79395 13453 ft 340 kts 127°
2026-04-29 05:07 10.13242 -84.77507 13006 ft 338 kts 127°
2026-04-29 05:07 10.11817 -84.75697 12560 ft 326 kts 127°
2026-04-29 05:07 10.10436 -84.73941 12146 ft 309 kts 127°
2026-04-29 05:07 10.09111 -84.72260 11808 ft 291 kts 127°
2026-04-29 05:08 10.07883 -84.70699 11494 ft 275 kts 127°
2026-04-29 05:08 10.06724 -84.69224 11175 ft 264 kts 127°
2026-04-29 05:08 10.05585 -84.67774 10808 ft 260 kts 127°
2026-04-29 05:08 10.04468 -84.66351 10638 ft 252 kts 127°
2026-04-29 05:09 10.03342 -84.65018 10415 ft 248 kts 138°
2026-04-29 05:09 10.01865 -84.64119 10116 ft 248 kts 154°
2026-04-29 05:09 10.00270 -84.63447 9818 ft 248 kts 157°
2026-04-29 05:09 9.98642 -84.62810 9515 ft 247 kts 157°
2026-04-29 05:10 9.97040 -84.62192 9229 ft 246 kts 158°
2026-04-29 05:10 9.95443 -84.61564 8943 ft 244 kts 153°
2026-04-29 05:10 9.94158 -84.60533 8685 ft 231 kts 117°
2026-04-29 05:10 9.93573 -84.59066 8472 ft 216 kts 104°
2026-04-29 05:11 9.93166 -84.57621 8124 ft 212 kts 104°
2026-04-29 05:11 9.92740 -84.56212 7950 ft 210 kts 106°
2026-04-29 05:11 9.92266 -84.54797 7981 ft 209 kts 107°
2026-04-29 05:11 9.91787 -84.53462 8013 ft 193 kts 108°
2026-04-29 05:12 9.91333 -84.52235 7959 ft 176 kts 108°
2026-04-29 05:12 9.90919 -84.51132 7934 ft 162 kts 108°
2026-04-29 05:12 9.90516 -84.50058 7954 ft 162 kts 108°
2026-04-29 05:12 9.90117 -84.48995 7964 ft 161 kts 108°
2026-04-29 05:13 9.89744 -84.47914 7970 ft 160 kts 98°
2026-04-29 05:13 9.89723 -84.46803 7931 ft 160 kts 78°
2026-04-29 05:13 9.90049 -84.45727 7669 ft 157 kts 68°
2026-04-29 05:13 9.90441 -84.44707 7428 ft 155 kts 68°
2026-04-29 05:14 9.90835 -84.43692 7194 ft 154 kts 68°
2026-04-29 05:14 9.91225 -84.42670 6967 ft 154 kts 68°
2026-04-29 05:14 9.91602 -84.41670 6743 ft 153 kts 68°
2026-04-29 05:14 9.91977 -84.40663 6520 ft 151 kts 68°
2026-04-29 05:15 9.92349 -84.39666 6301 ft 151 kts 68°
2026-04-29 05:15 9.92717 -84.38680 6155 ft 149 kts 68°
2026-04-29 05:15 9.93085 -84.37699 6102 ft 147 kts 68°
2026-04-29 05:15 9.93450 -84.36725 6012 ft 147 kts 68°
2026-04-29 05:16 9.93817 -84.35747 5911 ft 147 kts 69°
2026-04-29 05:16 9.94185 -84.34763 5749 ft 147 kts 69°
2026-04-29 05:16 9.94544 -84.33807 5491 ft 145 kts 69°
2026-04-29 05:16 9.94907 -84.32839 5295 ft 145 kts 69°
2026-04-29 05:17 9.95264 -84.31888 5102 ft 144 kts 70°
2026-04-29 05:17 9.95619 -84.30937 4912 ft 144 kts 70°
2026-04-29 05:17 9.95974 -84.29990 4723 ft 143 kts 70°
2026-04-29 05:17 9.96329 -84.29040 4532 ft 142 kts 70°
2026-04-29 05:18 9.96677 -84.28109 4350 ft 141 kts 70°
2026-04-29 05:18 9.97026 -84.27175 4164 ft 140 kts 70°
2026-04-29 05:18 9.97375 -84.26242 3979 ft 140 kts 71°
2026-04-29 05:18 9.97715 -84.25333 3797 ft 140 kts 71°
2026-04-29 05:19 9.98076 -84.24393 3626 ft 139 kts 70°
2026-04-29 05:19 9.98366 -84.23640 3470 ft 139 kts 71°
2026-04-29 05:19 9.98710 -84.22732 3264 ft 138 kts 72°
2026-04-29 05:19 9.99042 -84.21819 3103 ft 131 kts 72°
2026-04-29 05:20 9.99322 -84.21062 3095 ft 92 kts 69°
2026-04-29 05:20 9.99489 -84.20615 3096 ft 40 kts 70°
2026-04-29 05:20 9.99577 -84.20382 3096 ft 28 kts 68°
2026-04-29 05:20 9.99636 -84.20222 3097 ft 21 kts 69°
2026-04-29 05:21 9.99694 -84.20123 3097 ft 11 kts 17°
2026-04-29 05:21 9.99744 -84.20126 3097 ft 6 kts 355°
2026-04-29 05:21 9.99792 -84.20129 3097 ft 7 kts 347°
2026-04-29 05:21 9.99820 -84.20139 3097 ft 3 kts 336°
2026-04-29 05:22 9.99832 -84.20145 3097 ft 1 kts 339°